DECAYED

NOAA 16 DEB, 41253 (Decayed)

Orbit data source: Space-Track

NOAA 16 DEB, 41253 was space debris in SSO originally from a launch on Thu, 21 Sep 2000 UTC launched from the Air Force Western Test Range (AFWTR). Debris objects in space refer to the collection of defunct objects orbiting the Earth. Examples of debris include non-operational satellites, rocket bodies, and fragments generated from explosions, collisions, or faulty payload assembly.

Loading next visibility...
Identifier
41253, 2000-055FD
Orbit
Decayed
Country
Flag of USUS
Related business
Manufacturer
Unknown
Mission
Spacecraft
Bus & Motor
Unknown
Mass
Unknown
Launch date (UTC)
2000-09-21 (26 years ago)
Launch vehicle
Unknown
Launch site
Air Force Western Test Range (AFWTR)
Object type
Payload
Rocket body
Debris
Shape & HBR
Unknown shape, 0.1 m
Radar Cross Section
Medium (>0.1 m² and <1 m²)

Expand to show TLE details & history
Last TLE update: 1 year ago

TLE from 1 year ago
0 NOAA 16 DEB
1 41253U 00055FD  25153.13058942  .00011168  00000-0  28253-2 0  9992
2 41253  99.0186  35.6080 0048820 128.4330 232.1260 14.50394607491161
Epoch: 2025-06-02T03:08Z
TLE epoch observation values (Epoch: 2025-06-02T03:08:02.925Z)
Latitude
-0.00001°
Longitude
97.74913°
Altitude
748.703 km
Speed
7.469 km/s
True Right ascension
02h 22m 25s
True Declination
0° 00' 00"
Sunlit
Object was in daylight at epoch
Visualization orbit readout
Latitude
Unknown
Longitude
Unknown
Altitude
Unknown
Speed
Unknown
Apparent Right ascension
Unknown
Apparent Declination
Unknown
Sunlit
N/A
Visualization observer readout
Local Sidereal Time
21:05:28
Azimuth
Unknown
Elevation
Unknown
Doppler factor
Unknown
Orbital elements
Apogee altitude
756.154 km
Perigee altitude
686.833 km
Semi-major axis
7,099.63 km
Eccentricity
0.00488
Inclination
99.0186°
RAAN
35.608°
Arg. of periapsis
128.433°
True anomaly
231.68605°
Mean anomaly
232.126°
Eccentric anomaly
231.90586°
Mean motion
3.62819 °/min
Orbital period
99.22 mins
BSTAR
0.0028253
Loading maneuver chart data...
Computing Atmospheric mass density...

Documentation

Showing up to 5 results
|